Orbital Elements at Epoch 2459200.5 (2020-Dec-17.0) TDB
Reference: JPL 14 (heliocentric ecliptic J2000)
Element | Value | Uncertainty (1-sigma) | Units |
e | .1968060281482026 | 9.0023e-08 | |
a | 2.53490055983251 | 1.6577e-08 | au |
q | 2.036016848901219 | 2.3312e-07 | au |
i | 7.6311732978286 | 8.1845e-06 | deg |
node | 78.92088871437126 | 4.9331e-05 | deg |
peri | 214.1534464402941 | 5.0894e-05 | deg |
M | 35.42065540237469 | 1.1526e-05 | deg |
tp | 2459055.457956496812 (2020-Jul-24.95795650) | 4.7285e-05 | TDB |
period | 1474.143690114974 4.04 | 1.446e-05 3.959e-08 | d yr |
n | .244209572251347 | 2.3955e-09 | deg/d |
Q | 3.033784270763801 | 1.9839e-08 | au |
|
| | Orbit Determination Parameters
Additional Information
|